カタログに戻る

COSMOS 2251 DEB

運用中LEO
NORAD 40802·DEBRIS·🇷🇺 Russia

打ち上げ Jun 16, 1993 から Plesetsk Cosmodrome

Loading…

次のパス (今後24時間)

TLE

最新Source: Space-Track

元期: Sep 14, 2026, 11:17 UTC

1 40802U 93036BWF 26257.47044543  .00001937  00000-0  25432-3 0  9997
2 40802  74.0413 330.9442 0060643 356.0409   4.0278 14.79763016684852

AllMySatでCOSMOS 2251 DEBをリアルタイム追跡

Download on the App Store